RH
5 4 4 4 4 4 4 4 4 3 3 3 3 3 3 3 2 2 2 2 2 2 2 2 2 2 2 2 2 2 1 2 3 3 3 2 3 6 9 13 10 8 22 33 33 39 42 38 35 32 37 49 56 61 66 65 74 85 73 69 79 78 79 82 76 65 57 47 43 49 46 37 29 23 20 17 13 14 23 26 27 35 38 43 56 60 59 55
5 5 5 5 5 5 4 4 4 4 4 3 3 3 3 3 3 3 2 2 2 2 2 2 2 2 2 2 2 3 2 2 2 3 3 2 2 3 7 11 13 10 15 27 33 37 41 40 36 34 36 46 54 57 64 67 77 90 80 72 76 74 75 77 74 65 58 51 50 60 60 47 37 31 27 24 21 15 15 17 17 20 20 27 45 53 54 61
5 5 5 5 5 5 5 5 4 4 4 4 4 3 3 3 3 3 3 2 2 2 2 2 2 2 2 2 2 2 3 2 2 2 2 3 2 2 5 8 13 12 11 21 32 33 34 36 34 33 33 38 49 53 60 73 83 90 83 78 78 75 74 72 70 64 56 55 57 65 65 56 44 35 30 26 23 18 15 17 18 18 16 22 36 40 38 51
5 5 5 5 6 5 5 5 5 5 5 4 4 4 4 3 3 3 3 3 2 2 2 2 2 2 2 2 2 2 2 3 2 2 2 2 3 2 3 5 10 12 11 16 25 26 23 29 32 32 30 33 44 50 61 78 88 91 83 80 83 78 74 68 65 61 51 54 62 64 66 68 62 52 42 31 23 19 19 22 24 23 18 20 27 29 24 32
6 5 5 6 6 6 6 6 6 5 5 5 5 4 4 4 4 3 3 3 3 3 2 2 2 2 2 2 2 2 2 2 2 2 2 2 3 2 2 3 6 10 12 12 18 20 16 23 33 32 30 32 42 52 64 75 83 88 81 80 84 79 74 66 61 58 50 51 61 62 65 72 73 71 63 45 29 23 22 22 24 25 20 18 21 28 25 21
6 6 6 5 6 6 6 7 7 6 6 6 6 5 5 4 4 4 4 4 3 3 3 2 2 2 2 2 2 2 2 2 2 3 2 2 2 3 3 2 3 6 10 11 14 17 14 20 31 33 33 35 46 59 64 66 75 85 83 82 85 79 74 68 60 57 50 47 56 59 61 69 71 74 71 58 41 31 30 25 21 23 22 18 19 31 33 20
8 7 7 6 6 6 6 7 7 7 7 6 6 6 5 5 5 5 4 4 4 3 3 3 2 2 2 2 2 2 2 2 2 2 2 2 2 2 3 2 2 2 6 10 12 15 15 19 31 37 37 37 49 61 58 56 66 77 83 84 83 79 73 67 59 55 50 43 48 54 58 64 68 68 66 60 49 41 41 35 25 23 23 19 20 34 38 25
10 9 8 8 7 7 7 7 7 7 7 7 6 6 6 6 5 5 5 4 4 3 4 3 3 3 2 2 2 2 2 2 2 2 2 2 2 2 2 3 3 2 3 5 10 14 16 20 31 37 38 39 51 62 54 50 59 69 79 80 77 74 68 64 58 53 49 42 41 47 55 59 61 62 57 55 54 53 50 43 35 28 26 23 23 34 36 27
11 10 9 9 8 8 8 7 7 7 7 6 6 6 6 7 6 6 5 5 4 4 4 4 4 3 3 3 2 2 2 2 2 2 2 2 2 2 2 2 2 3 2 2 5 9 15 21 28 35 39 42 51 62 55 49 57 65 69 69 66 66 64 63 60 55 51 46 40 41 50 54 54 56 52 50 55 58 54 46 42 34 28 26 25 31 33 28
12 11 10 10 9 8 8 8 8 8 7 6 6 6 6 7 7 6 5 5 5 5 4 4 4 3 3 3 3 2 2 2 2 2 2 2 2 2 2 2 2 3 2 2 2 4 11 19 27 33 38 44 50 58 56 52 61 66 60 55 57 62 67 67 64 60 56 52 44 38 45 49 49 55 51 48 52 57 55 47 42 38 30 25 24 29 32 28
15 14 12 11 10 9 9 8 8 8 8 7 6 6 7 7 7 6 5 6 6 5 5 4 4 4 4 4 3 3 3 2 2 2 2 2 2 2 2 2 2 2 2 3 2 2 6 15 24 25 30 41 47 53 54 54 63 66 54 47 52 59 63 66 66 64 59 55 47 39 41 44 48 54 49 47 50 54 56 52 44 36 28 24 22 26 32 29
18 16 15 14 12 11 10 9 9 9 8 7 6 6 8 8 7 7 6 6 6 6 5 5 5 5 4 4 3 3 3 3 2 2 2 2 2 2 3 3 3 2 2 3 2 3 3 8 16 20 26 33 40 48 50 53 60 59 51 45 50 54 52 60 67 67 62 56 49 40 37 41 48 52 47 48 51 54 59 61 52 36 25 23 22 23 29 30
20 19 18 17 15 14 12 12 11 10 9 7 7 8 9 8 8 7 7 7 7 7 7 6 6 5 5 4 3 4 4 3 3 3 2 2 2 2 2 2 3 3 3 3 2 3 2 3 7 16 26 28 33 40 41 48 54 57 50 43 49 50 48 60 70 68 61 54 49 41 34 40 48 48 46 49 53 58 65 66 56 36 22 20 21 22 25 25
20 20 19 18 17 16 15 14 13 12 10 9 9 9 10 9 9 8 8 8 8 8 8 8 7 6 5 4 4 4 4 4 3 3 3 2 2 2 2 2 3 3 3 3 2 3 2 3 3 8 16 21 29 32 32 39 47 55 48 40 46 46 50 64 68 63 55 52 49 40 33 39 46 45 45 51 53 58 66 68 56 41 30 23 19 20 23 21
19 19 19 19 18 18 17 16 15 14 11 11 10 11 11 11 10 10 10 10 9 9 9 9 8 7 7 5 4 4 4 4 3 3 3 3 3 2 2 2 2 3 3 3 3 3 2 3 2 3 6 14 23 23 25 30 36 46 42 39 45 42 52 65 63 56 53 53 47 38 38 40 43 45 46 51 56 62 71 74 67 63 58 42 24 17 20 21
18 18 18 18 18 18 18 18 17 15 12 12 12 12 11 11 11 12 12 12 11 10 9 10 9 8 9 7 5 5 5 4 3 4 4 3 3 3 2 2 2 2 3 2 2 3 2 2 2 3 3 6 12 12 18 22 25 32 31 36 42 40 53 62 57 55 53 51 42 39 47 45 44 48 46 50 60 70 78 80 79 78 75 58 33 17 18 22
18 18 18 17 17 17 17 17 18 17 14 13 14 13 12 11 11 12 13 14 14 13 11 11 10 10 10 9 7 6 6 5 4 4 4 4 3 3 3 3 3 2 2 2 2 2 2 3 2 3 3 3 4 5 10 10 12 20 21 29 38 38 48 55 54 54 52 45 37 45 59 55 54 54 51 58 68 75 80 81 82 81 77 66 42 21 19 22
19 18 18 17 17 16 16 16 17 17 15 14 15 14 13 11 11 11 12 14 15 15 13 12 11 11 11 10 9 9 7 7 6 4 4 4 3 3 3 3 3 2 2 2 2 2 2 3 2 2 2 2 2 2 4 2 6 16 20 28 36 38 44 52 55 53 49 42 34 47 64 65 65 63 60 67 74 77 81 81 84 85 78 69 50 26 19 22
18 18 17 17 16 15 15 15 16 16 15 15 15 16 14 12 11 11 12 13 14 15 14 14 13 13 13 11 9 10 9 8 7 6 5 4 4 3 3 3 3 3 3 2 2 2 2 2 2 2 2 2 2 2 2 3 6 13 20 27 35 39 42 51 59 56 49 39 31 45 65 71 70 70 69 71 76 78 81 81 83 88 78 64 53 32 19 22
17 17 16 16 15 14 13 14 15 15 15 15 14 16 15 13 12 11 13 13 13 14 14 15 15 15 14 12 11 10 10 10 9 8 7 6 5 4 4 3 3 3 3 3 3 2 2 2 2 2 2 2 3 3 2 3 4 9 16 22 32 39 39 48 59 60 54 37 28 42 62 69 70 74 74 72 76 78 80 83 81 87 82 64 57 46 27 21
15 15 15 15 15 14 13 12 13 13 15 15 15 15 15 14 13 12 14 15 14 13 15 15 14 17 18 13 11 11 10 10 10 10 9 8 7 5 5 4 3 4 3 3 3 3 2 2 2 2 3 3 3 3 3 3 3 6 9 15 27 35 37 48 58 63 62 41 29 41 53 64 71 74 75 70 74 79 79 85 84 84 86 73 60 56 41 23
11 12 13 13 14 14 13 12 12 12 13 14 15 14 14 14 13 12 13 17 17 13 14 17 14 17 20 15 12 11 9 11 12 11 11 10 9 7 6 5 4 4 4 3 3 3 3 2 3 3 2 3 3 3 3 3 3 4 6 9 17 30 39 49 55 62 69 52 36 42 47 59 70 71 73 70 73 81 80 85 87 82 86 83 63 52 48 35
8 9 9 10 11 11 12 12 11 11 11 12 13 13 13 13 12 12 11 16 20 16 13 16 15 17 20 16 12 10 11 14 14 13 12 11 11 10 8 7 6 5 4 4 3 3 3 3 3 3 3 3 3 3 3 3 3 3 5 5 8 27 43 48 54 59 67 60 43 43 45 52 63 63 64 70 74 79 78 81 84 80 82 87 72 52 50 47
6 7 7 7 8 8 9 10 10 11 11 11 11 11 12 11 11 12 11 12 19 21 18 15 14 17 21 18 11 10 12 15 15 14 14 13 13 12 10 10 8 7 5 4 4 4 3 4 3 3 3 3 3 3 3 3 4 2 4 4 2 22 41 48 56 56 59 61 47 42 43 44 54 56 56 66 72 72 73 75 77 79 80 83 80 62 48 47
4 5 6 6 6 6 7 8 9 9 10 10 10 10 10 10 10 10 10 9 12 21 24 17 13 16 19 18 15 15 13 14 17 17 15 15 15 14 13 12 10 8 7 6 6 4 4 4 4 4 3 3 2 2 3 2 3 2 3 4 1 15 38 49 55 53 53 59 54 48 39 34 44 51 55 63 64 65 70 71 72 77 79 80 84 74 51 46
3 3 4 5 5 6 6 6 7 7 8 9 9 9 9 9 10 9 10 9 8 17 23 19 18 17 16 16 18 19 15 14 18 17 15 16 16 15 14 13 11 11 9 8 7 5 5 4 3 4 3 3 3 2 3 2 3 3 2 4 2 7 31 49 53 53 52 54 61 59 39 26 33 43 53 58 55 62 68 66 67 71 76 78 82 80 60 48
3 3 3 4 4 4 5 5 6 6 6 7 7 8 8 8 9 8 9 9 8 13 17 17 20 19 17 16 17 19 18 18 17 14 14 16 16 16 15 14 13 13 12 10 9 7 6 5 4 4 3 3 3 2 3 2 2 3 2 4 3 4 22 45 53 53 52 52 60 64 46 25 22 32 47 52 50 58 62 60 62 65 72 76 77 81 69 51
4 3 3 4 4 3 4 5 6 6 6 6 6 6 7 7 8 8 8 9 8 11 14 14 15 17 19 19 18 19 20 20 18 15 15 16 16 16 16 15 15 15 15 13 11 9 7 6 5 4 4 3 4 3 3 3 2 3 3 3 4 4 13 39 55 52 54 56 51 57 54 28 12 23 40 45 45 51 55 57 60 62 68 73 74 79 75 59
9 5 4 4 4 4 5 6 6 6 6 6 6 5 6 6 6 7 7 8 8 9 11 13 13 14 17 19 20 20 21 21 19 17 17 15 15 16 15 16 16 16 16 14 12 11 8 7 6 5 5 3 4 4 3 3 2 2 4 3 4 5 7 30 51 52 56 54 35 41 54 31 7 16 32 33 35 44 53 58 59 62 67 70 71 75 77 67
18 13 8 5 4 5 5 7 9 9 9 8 7 6 6 6 6 6 6 6 7 8 9 11 13 13 15 19 21 21 21 22 21 19 19 17 17 17 16 16 15 15 16 14 13 12 10 9 7 6 5 4 4 4 3 3 3 2 4 3 4 4 4 18 39 52 54 36 14 25 47 34 9 10 20 20 24 40 56 61 58 59 64 68 70 72 74 71
24 21 17 11 8 7 8 9 11 12 13 12 10 7 7 7 6 6 5 6 8 7 8 9 11 13 15 20 23 23 22 23 23 21 20 19 18 17 16 14 14 13 14 13 12 13 12 10 9 7 6 5 4 4 4 3 3 3 3 3 3 4 4 9 25 41 37 13 2 15 35 33 11 5 13 15 19 36 53 60 57 58 63 66 69 70 71 73
23 24 22 19 15 13 12 13 13 13 16 17 15 11 10 9 7 6 5 7 9 8 7 9 10 12 15 19 24 27 27 25 24 24 22 20 19 18 18 16 15 14 13 14 14 14 13 12 10 9 7 5 5 4 4 4 3 3 3 3 3 3 3 5 12 19 12 2 2 10 24 25 7 3 11 13 17 31 49 59 56 58 64 66 68 68 67 71
19 21 22 22 21 19 17 18 17 16 17 19 19 16 14 12 7 6 6 8 9 8 8 10 11 14 16 19 24 26 28 26 25 26 26 24 21 20 21 20 19 18 17 18 17 16 16 14 12 11 9 7 6 5 4 4 3 3 3 3 2 3 3 3 5 5 2 2 3 8 21 19 3 1 6 8 14 25 42 56 54 53 61 65 67 66 65 67
14 15 17 19 21 21 20 21 21 21 21 20 21 20 17 12 7 6 8 10 9 8 10 12 13 17 19 21 23 24 27 29 26 25 26 26 24 22 21 20 19 18 18 19 17 16 17 15 13 13 11 9 8 6 5 4 4 4 3 3 2 2 3 2 3 3 2 3 2 8 19 13 1 3 4 6 14 18 29 44 48 49 55 60 64 65 64 64
9 10 12 13 16 18 20 21 22 23 24 22 22 21 17 11 10 11 12 12 12 10 12 14 15 19 22 24 24 23 27 30 28 25 25 26 27 26 23 21 20 19 18 17 16 15 16 15 15 14 12 11 9 8 6 5 5 5 4 4 3 3 3 2 3 3 3 3 2 5 10 7 2 3 3 6 12 15 20 28 34 40 50 58 62 63 64 63
6 6 7 9 10 12 14 17 18 20 21 22 23 21 18 15 16 17 16 15 15 13 14 16 18 19 23 25 25 25 27 29 29 28 26 26 28 30 28 25 23 22 21 20 18 17 17 17 17 16 14 13 11 9 8 7 6 5 4 4 4 3 3 3 3 3 3 4 3 2 4 4 2 3 3 4 7 11 16 20 23 31 45 56 58 58 62 63
3 3 4 5 5 6 8 10 13 14 16 18 20 21 20 19 19 18 18 17 17 16 16 18 19 19 21 23 24 25 27 28 29 30 29 28 29 30 29 28 26 25 24 23 21 19 19 20 20 20 18 16 13 11 9 8 7 6 5 4 4 4 4 4 3 3 4 3 3 3 2 3 2 2 3 3 5 7 10 14 17 23 36 50 55 55 57 60
2 2 3 3 3 3 4 5 7 9 10 12 15 18 20 20 20 19 19 18 19 19 18 19 19 18 20 22 23 25 28 30 31 31 31 31 29 28 28 29 27 24 24 23 20 19 20 20 20 21 20 18 16 14 11 10 8 7 6 5 5 5 4 4 3 3 4 3 3 3 3 2 2 2 2 3 3 6 8 10 13 16 23 34 43 47 50 55
2 2 2 2 2 2 2 3 3 5 6 7 9 12 16 18 19 19 19 18 19 19 20 20 20 19 20 22 24 26 27 29 30 31 33 32 28 26 27 29 27 24 23 23 22 21 20 19 19 21 22 20 18 16 14 12 10 8 7 6 5 5 5 5 4 4 4 3 3 3 3 2 2 2 3 3 2 4 6 7 8 11 15 20 24 29 37 46
3 3 2 2 2 2 2 2 2 3 3 4 5 7 10 13 15 17 19 18 18 18 18 20 20 20 20 21 23 26 27 28 29 31 33 32 29 26 26 27 27 26 25 25 24 23 22 19 18 21 23 21 17 17 16 15 13 11 9 7 6 5 5 5 5 5 4 4 3 3 3 2 3 3 2 3 3 3 4 6 5 6 11 16 19 21 23 31
5 4 3 3 2 2 2 2 2 2 2 2 3 4 5 7 10 12 15 17 18 17 17 18 19 20 20 21 22 24 25 27 28 31 33 32 30 29 27 27 27 26 26 27 27 26 23 20 18 20 23 21 19 19 18 16 15 13 11 9 7 5 5 6 5 5 5 4 4 3 3 3 3 3 3 3 3 2 3 6 5 6 7 9 18 24 21 26
9 8 6 5 4 4 3 3 2 2 2 2 2 2 3 3 5 6 8 12 15 17 17 17 18 19 20 21 21 22 24 25 27 30 33 32 31 30 28 27 28 28 27 27 28 26 24 22 19 19 20 22 22 21 20 18 16 15 13 10 8 6 6 6 5 5 5 5 5 4 4 4 3 3 3 3 3 3 3 4 4 6 6 5 15 24 21 26
13 13 11 8 8 8 6 4 4 3 3 3 2 2 2 2 3 3 4 5 8 12 15 16 16 17 18 20 20 20 21 24 26 28 30 31 31 31 30 28 29 30 30 29 28 26 25 25 23 20 20 22 23 23 22 21 18 17 15 12 11 8 7 7 6 6 6 5 5 5 4 4 4 3 3 3 3 3 3 3 3 4 6 5 12 21 19 22
19 19 18 15 15 14 11 8 6 5 5 4 3 2 3 3 2 2 3 3 4 6 10 12 14 15 16 17 18 19 20 21 24 27 29 30 30 31 31 30 31 33 32 30 28 26 26 25 23 22 22 24 26 24 21 21 19 17 17 15 13 11 9 8 7 7 7 6 6 5 4 4 4 4 3 3 4 4 4 4 3 3 4 4 9 17 18 19
24 23 24 26 25 24 22 17 12 9 8 7 5 4 3 3 3 3 3 3 3 4 5 7 9 12 14 15 15 15 17 18 21 25 28 29 30 31 33 33 34 36 35 31 28 27 27 25 22 23 23 22 24 24 21 20 19 16 16 16 15 14 11 10 9 8 8 7 6 5 5 4 5 4 3 3 3 4 4 4 3 3 3 4 5 10 18 24
29 27 30 36 38 36 33 27 19 14 12 10 8 7 5 4 4 3 3 3 3 3 3 4 5 8 10 12 12 13 13 15 18 21 25 28 29 32 35 36 36 38 37 34 31 29 28 27 24 23 23 21 22 24 23 21 19 16 16 16 16 16 14 12 12 10 8 9 7 6 6 6 5 4 3 4 3 3 4 4 4 3 2 3 3 4 20 35
34 33 35 40 45 46 41 35 30 24 20 17 16 13 8 6 5 4 6 8 5 3 4 4 3 5 7 7 9 10 11 12 14 17 21 27 29 31 36 39 40 41 40 38 36 33 30 31 29 25 23 22 21 23 25 23 21 18 17 16 15 16 16 14 12 10 10 10 8 7 7 6 6 5 4 4 3 3 4 4 3 3 2 3 3 1 16 36
39 42 45 45 46 49 47 46 47 42 30 24 30 31 20 11 7 6 12 24 27 18 8 5 4 3 4 6 5 7 8 9 11 14 18 24 27 31 38 44 46 45 45 43 41 37 34 34 33 28 24 23 21 22 26 25 23 21 18 17 15 14 14 13 11 12 12 10 9 8 8 8 7 6 5 4 4 3 4 4 4 4 2 3 3 2 12 27
46 49 53 54 57 56 51 54 62 63 49 39 46 51 43 32 21 9 9 31 58 62 39 21 13 5 3 5 4 5 7 7 8 10 13 19 26 34 43 50 52 50 50 50 46 41 38 38 37 32 26 25 24 23 26 26 24 22 19 18 16 14 12 11 11 13 13 12 11 10 10 9 8 7 5 5 4 4 4 4 4 4 4 4 3 2 7 15
52 54 52 60 74 70 59 61 69 74 70 61 61 66 66 62 53 38 22 20 50 85 84 63 46 27 13 8 5 5 5 5 7 8 9 15 24 38 50 55 56 55 55 54 50 44 40 40 40 36 30 30 29 26 26 27 25 23 21 19 17 15 13 11 11 13 13 12 13 13 12 10 9 8 7 6 5 4 4 4 4 4 4 4 4 3 4 8
57 59 53 64 85 83 71 71 74 78 82 78 73 73 74 75 73 69 60 39 37 66 89 94 91 73 48 30 19 13 8 4 6 7 7 10 17 36 56 62 63 62 61 59 54 48 45 42 42 40 35 34 36 32 27 26 25 24 21 20 18 17 16 14 13 13 12 12 13 13 11 10 11 10 8 7 6 4 4 4 4 4 4 4 5 5 5 7
63 67 60 70 91 90 80 81 78 77 79 76 76 81 83 83 77 70 72 64 50 50 59 74 89 90 83 73 57 35 16 7 6 6 7 8 9 22 47 67 74 70 67 67 61 53 48 46 46 46 39 38 43 40 30 27 26 22 20 20 21 19 18 17 16 14 13 12 11 10 10 12 13 11 9 9 9 7 5 5 5 5 4 4 5 5 8 10
Wind_Speed
12 13 13 13 13 13 13 13 13 12 12 12 11 11 10 9 8 8 8 8 9 9 10 9 8 8 10 13 15 15 14 13 12 11 13 12 12 9 6 10 12 13 16 17 15 15 15 15 14 14 14 13 12 11 9 7 6 4 5 6 6 5 6 8 8 8 10 13 14 12 10 9 7 6 7 7 6 6 5 5 3 0 1 3 4 4 4 3
13 13 12 12 13 13 13 13 13 13 12 12 12 11 11 10 9 8 8 8 8 9 9 10 9 9 9 9 12 15 15 15 14 15 14 7 7 10 11 13 13 13 15 15 16 16 17 17 16 15 15 15 13 12 11 9 8 7 7 6 6 4 5 7 7 8 9 12 14 13 12 10 7 7 8 8 7 5 5 5 4 3 2 1 3 4 5 5
13 13 12 12 12 13 13 13 13 13 12 12 12 11 11 10 10 9 8 8 8 8 9 9 10 11 10 8 9 12 15 17 17 17 15 9 10 14 15 15 15 16 17 19 20 20 20 19 18 17 17 15 13 12 12 11 10 9 8 7 6 5 5 6 7 8 9 12 14 15 15 13 9 7 8 9 7 6 5 5 6 6 5 3 2 3 4 6
14 14 13 13 13 14 14 14 14 13 12 12 11 11 11 10 10 10 9 9 8 8 8 8 9 11 12 10 8 9 11 16 18 19 17 13 13 16 16 15 16 18 20 22 23 22 22 19 17 18 16 15 12 11 12 12 11 10 9 9 9 7 6 7 8 9 9 11 13 15 17 16 13 11 10 9 9 7 6 5 5 6 6 5 3 3 4 5
16 16 15 15 15 15 15 15 14 14 13 12 12 11 10 10 9 9 9 10 9 9 8 7 8 11 12 11 10 8 9 12 17 20 19 16 16 17 16 16 17 19 21 22 21 21 20 18 17 17 15 13 11 11 14 14 13 12 10 11 10 9 8 7 7 8 8 10 13 14 16 16 14 13 11 10 10 9 7 5 6 6 7 6 5 4 4 4
18 18 17 17 17 16 16 15 15 15 14 14 13 12 11 10 9 9 9 10 10 10 9 7 7 10 11 11 11 10 9 9 12 17 20 19 18 18 17 17 18 19 20 20 18 17 17 17 16 15 14 13 11 13 17 17 16 14 12 12 12 11 10 9 7 8 8 9 11 14 15 15 13 12 11 10 10 10 10 8 7 7 7 7 6 5 5 4
19 19 19 18 18 17 17 17 16 16 16 15 14 13 11 10 10 9 9 10 10 11 11 9 8 9 10 11 11 10 10 9 9 13 18 21 20 20 20 18 18 19 19 19 17 14 14 16 16 16 17 15 13 15 18 18 18 16 15 15 14 14 13 11 8 6 5 6 10 13 14 14 13 11 9 9 10 11 12 10 9 8 7 8 5 4 5 5
21 21 20 20 20 19 19 19 18 18 17 17 16 14 13 11 11 11 10 10 10 11 12 10 10 10 10 11 11 11 10 9 9 10 13 18 21 22 22 20 19 18 18 18 18 16 15 17 19 20 19 17 17 19 20 19 19 18 18 17 17 16 14 11 10 8 6 4 6 12 14 13 12 10 8 9 10 11 12 11 9 8 7 8 5 4 6 6
22 22 22 22 21 21 20 20 20 19 19 19 17 15 14 13 13 12 12 11 10 11 12 11 11 11 11 11 12 12 10 9 9 9 10 14 18 22 23 22 20 19 19 19 20 19 18 19 21 21 20 20 21 23 21 20 20 20 20 20 18 16 13 11 11 10 9 9 5 9 15 13 11 10 8 9 10 11 11 10 9 8 7 7 5 4 5 6
23 23 23 22 22 22 21 21 21 21 21 20 18 16 14 14 15 14 13 11 11 11 12 12 11 11 12 12 13 11 8 10 10 8 9 11 14 20 23 23 22 21 19 19 20 19 19 21 24 25 25 25 25 25 23 20 21 22 22 21 18 15 14 13 13 13 13 14 12 7 14 13 12 10 9 9 10 10 10 9 8 8 7 7 5 4 5 5
23 23 23 23 23 22 22 21 21 21 22 21 19 16 15 16 17 16 14 12 11 12 13 12 11 12 12 13 14 9 7 12 12 8 9 10 12 15 20 23 23 22 20 20 19 19 21 24 28 29 28 28 27 26 24 22 24 25 25 22 18 16 15 14 15 16 16 15 15 10 13 14 12 11 9 10 9 9 9 9 8 7 6 6 5 4 4 4
23 23 23 23 23 23 22 22 22 22 22 22 20 17 17 18 18 17 16 14 12 12 13 12 12 12 13 15 13 7 9 13 12 12 11 10 11 11 16 21 23 23 22 21 20 21 23 25 29 29 27 27 28 28 26 25 27 27 26 23 19 16 13 13 16 17 17 17 18 12 11 13 12 12 10 10 10 9 8 9 9 7 5 6 5 4 4 4
24 24 24 24 24 23 23 22 22 22 23 22 20 18 18 19 19 19 18 16 14 13 13 12 12 13 15 17 12 7 11 14 14 15 12 8 9 10 13 18 21 23 22 22 22 23 24 25 28 28 28 29 28 28 27 27 28 28 27 23 19 17 12 12 16 18 18 19 19 11 11 13 13 12 10 11 10 9 9 8 8 6 6 6 6 5 5 4
26 25 25 25 25 25 24 23 23 23 24 23 21 19 19 19 20 19 19 18 16 15 14 13 13 14 16 17 12 9 11 15 17 15 11 8 8 9 12 15 19 22 22 23 23 23 24 25 26 28 30 30 29 29 28 28 29 29 29 24 20 17 11 13 17 18 19 20 19 10 10 13 13 12 11 12 11 10 9 6 6 7 8 8 8 7 6 6
29 28 28 27 27 27 26 25 25 25 25 24 23 22 21 21 20 20 20 19 18 16 15 15 15 15 17 18 13 11 14 17 17 13 11 11 11 11 12 14 17 20 23 24 24 25 25 25 25 26 28 29 30 30 28 27 28 30 29 24 21 17 13 16 18 17 18 19 18 9 10 12 13 12 12 13 12 10 9 8 8 11 11 9 8 7 7 7
32 31 31 31 30 29 28 27 27 27 27 26 25 24 23 22 22 21 21 20 19 18 17 17 17 17 19 19 15 14 17 18 15 11 13 15 15 14 13 12 13 16 21 24 26 27 26 25 25 25 27 28 30 30 29 28 27 28 27 23 21 18 17 19 18 17 17 18 16 9 11 12 13 13 13 14 13 12 12 11 12 14 13 9 7 7 7 6
35 34 34 34 34 33 31 30 29 29 29 28 27 27 26 25 24 23 22 21 20 19 19 18 18 18 19 21 18 16 17 18 15 12 16 18 17 15 13 12 13 15 18 22 24 26 27 26 25 25 26 27 27 29 29 25 22 24 22 20 20 19 19 19 17 17 17 17 16 12 12 12 15 15 15 15 14 13 12 11 12 13 13 10 7 6 6 6
37 37 37 37 37 36 35 34 32 32 31 30 28 28 28 27 26 26 24 22 21 21 21 19 20 19 20 23 21 19 18 18 18 16 18 20 18 15 15 16 16 16 17 18 19 22 24 25 25 26 26 26 27 27 23 17 17 22 20 19 20 20 19 18 17 17 17 17 17 16 13 13 15 15 15 14 12 11 11 10 11 13 13 10 7 6 5 6
40 40 40 40 40 39 37 37 36 35 34 33 31 30 30 29 28 28 26 24 23 23 22 20 20 19 20 23 23 22 20 19 19 18 19 20 19 16 17 18 17 17 17 16 17 18 20 23 24 24 23 25 25 25 21 16 18 23 22 20 20 21 20 18 18 19 18 17 17 16 13 13 14 14 14 13 11 10 10 9 10 11 12 9 7 6 5 5
43 42 42 42 42 42 40 39 39 38 37 37 35 33 32 32 31 30 28 27 26 25 24 22 20 20 21 25 25 24 22 20 20 19 20 21 20 18 18 18 17 17 16 15 16 17 20 21 18 17 19 23 25 25 22 19 21 23 25 22 21 23 21 18 20 22 21 18 16 17 15 15 14 13 12 13 13 10 9 8 8 10 11 9 6 5 5 4
44 44 44 44 44 44 43 41 40 40 39 39 38 37 35 34 34 33 31 30 29 28 26 24 23 20 22 28 27 26 26 22 19 21 20 21 22 20 18 18 17 15 15 17 18 19 20 16 11 12 17 22 25 26 25 22 21 24 26 25 23 24 21 19 22 24 24 20 16 17 17 16 14 13 13 14 15 11 7 5 5 6 9 9 6 4 5 3
46 45 45 45 45 45 45 43 42 42 41 41 41 40 38 37 37 36 34 32 31 32 28 26 26 21 23 31 30 29 28 20 19 22 21 21 23 21 19 19 18 17 19 22 21 19 17 10 8 12 15 19 23 25 26 24 24 24 26 27 26 23 21 22 24 25 27 25 18 19 19 18 17 16 16 17 15 11 9 5 2 1 4 8 8 4 4 2
47 47 46 46 46 47 47 46 44 43 43 44 43 43 42 41 40 39 38 34 31 34 33 29 29 24 25 32 34 33 27 20 22 24 22 22 22 22 23 20 19 20 22 23 21 19 15 9 10 13 15 18 21 23 25 26 27 26 26 28 24 22 24 25 25 28 31 30 23 21 21 20 20 19 19 18 15 15 15 12 9 6 3 5 8 5 3 2
50 49 49 48 48 48 48 48 47 46 46 46 45 45 45 44 43 42 42 39 33 32 36 35 32 27 27 33 38 36 27 22 25 25 24 23 22 25 24 22 22 23 23 23 22 21 17 14 15 17 17 19 21 23 26 28 28 27 27 27 22 23 27 27 28 31 33 33 27 24 24 21 20 19 18 18 18 18 17 17 15 12 5 3 6 5 3 3
52 52 51 50 50 49 50 50 49 48 48 48 48 47 47 46 46 45 43 43 38 31 34 40 37 32 31 34 38 37 31 26 25 27 27 24 24 26 26 26 26 24 23 23 23 22 19 18 18 20 21 21 22 23 25 27 28 28 27 24 20 25 29 29 32 33 34 35 31 28 28 23 22 21 18 18 19 18 17 18 18 14 9 4 1 4 4 4
54 54 53 53 52 51 51 52 52 51 50 50 50 49 49 48 48 48 46 46 43 34 33 40 41 38 35 36 37 37 36 28 25 32 32 25 27 29 29 29 26 24 24 25 25 21 20 21 21 23 23 22 22 21 21 23 27 27 24 22 23 28 32 32 34 36 37 36 34 34 32 25 24 25 20 19 20 19 19 20 20 17 13 8 4 2 5 4
56 55 55 55 54 53 52 53 54 54 53 52 52 51 51 50 49 50 48 48 47 39 35 39 42 42 40 39 38 38 38 30 29 38 33 26 30 32 31 30 26 25 26 27 25 18 17 21 23 23 24 24 22 18 17 21 22 21 21 24 26 29 33 34 36 39 39 37 38 40 37 30 26 25 23 21 22 22 21 22 21 18 16 12 8 3 3 5
57 57 57 57 56 55 53 53 54 56 56 55 54 53 52 52 51 51 50 50 49 44 39 40 43 45 43 42 41 40 38 33 34 40 34 30 34 34 33 30 27 27 28 29 24 17 18 22 22 24 26 26 22 17 18 20 16 14 21 27 27 28 33 37 39 41 41 41 42 41 40 35 24 22 25 26 26 24 22 22 21 19 17 14 10 6 1 5
57 57 58 58 58 57 56 54 53 56 57 57 57 56 55 54 53 52 52 51 50 47 43 41 43 45 46 45 43 42 41 37 37 40 38 36 35 35 35 31 30 32 32 31 25 23 25 25 25 27 27 26 22 20 20 19 14 15 25 29 28 30 33 38 42 41 42 46 44 40 41 38 23 20 27 27 25 22 20 23 22 21 20 17 13 9 5 5
56 57 58 59 58 59 58 57 55 55 56 57 58 58 58 57 55 54 55 53 50 49 47 44 43 45 46 46 44 44 43 40 39 40 40 38 37 37 36 34 35 36 35 33 28 27 28 30 31 28 25 24 23 23 24 21 19 22 28 30 32 34 34 40 44 42 47 48 41 37 40 40 26 18 25 23 16 17 22 25 23 23 23 19 16 12 7 4
58 57 58 59 59 59 59 59 58 57 56 56 58 60 60 59 58 58 56 52 50 50 50 48 45 45 46 46 44 43 42 42 41 41 41 40 39 40 38 37 38 38 38 35 28 27 30 32 31 26 24 24 24 25 25 24 24 28 31 32 36 37 36 42 45 47 49 42 34 34 40 42 25 13 19 18 12 16 23 26 23 23 24 21 19 16 12 6
60 59 59 59 59 60 59 59 60 60 59 58 57 59 60 61 61 60 57 53 52 53 52 50 47 46 46 46 44 41 40 41 41 41 42 41 41 40 37 35 35 36 37 31 25 27 29 29 29 27 26 26 24 24 25 26 27 29 32 35 39 40 40 44 46 49 46 34 29 33 39 42 25 10 14 15 12 16 22 25 23 23 24 23 22 20 17 13
62 62 61 61 61 61 61 60 60 61 61 61 59 60 61 63 64 62 58 56 55 55 54 52 49 47 46 46 45 43 40 41 42 42 42 42 41 41 38 36 36 36 34 28 28 31 29 28 29 28 26 26 26 24 23 24 25 27 29 33 37 38 41 43 43 44 38 28 29 34 40 44 31 14 13 13 13 16 21 24 23 21 23 24 24 22 20 18
64 63 63 62 62 63 62 62 62 61 62 62 62 62 63 64 64 63 60 58 57 57 55 54 52 50 48 47 47 45 42 41 43 44 44 44 43 42 42 41 40 40 36 33 34 34 32 31 29 26 25 26 26 23 22 24 25 25 26 31 35 34 37 39 39 40 34 28 33 37 43 46 32 16 12 13 16 17 20 23 21 20 21 22 24 24 23 21
67 66 65 64 63 64 64 64 64 63 63 63 64 64 64 64 64 63 63 60 59 58 57 56 55 53 51 49 48 47 45 43 43 45 46 46 44 42 41 41 41 41 39 38 36 34 34 31 26 27 28 28 27 25 26 28 28 27 29 33 30 27 32 37 39 40 37 35 37 39 43 41 29 21 20 19 20 19 19 21 20 20 21 22 25 25 23 22
70 70 68 66 65 65 66 66 66 66 65 65 66 66 65 64 65 65 64 62 61 60 59 58 57 56 54 52 51 49 48 46 45 46 47 47 46 42 41 41 41 41 40 39 36 36 36 29 25 30 31 28 28 29 31 32 30 31 34 30 23 23 31 36 37 39 41 42 40 38 40 36 29 25 24 23 23 22 21 18 18 19 21 25 27 25 22 20
73 72 71 68 67 66 67 68 68 68 67 67 67 67 66 66 67 67 66 65 64 62 61 60 59 59 58 56 54 52 51 50 48 48 48 49 49 48 46 45 45 45 43 42 41 40 39 32 29 32 30 26 29 32 36 36 34 35 32 26 24 29 34 36 37 38 43 46 41 36 36 33 30 26 23 23 24 23 23 20 18 18 21 26 27 23 21 20
74 74 73 71 70 69 68 68 69 69 69 69 68 67 68 68 67 68 69 69 67 65 64 62 62 61 61 59 58 56 54 53 52 51 51 52 53 52 50 49 50 50 49 48 47 46 44 39 36 35 32 30 34 38 40 40 38 36 31 28 31 35 35 36 37 36 40 42 37 34 33 30 28 25 22 22 22 22 23 23 21 20 20 23 23 22 22 22
73 73 74 73 73 73 71 70 70 70 70 70 69 69 70 70 69 70 71 71 70 69 67 66 65 64 63 62 61 59 58 56 56 55 54 55 56 56 54 52 52 52 51 50 50 48 47 45 42 38 36 37 40 44 44 41 38 36 34 36 37 37 35 36 38 36 36 37 33 31 29 24 21 21 21 21 21 21 23 23 23 21 20 20 19 20 22 24
69 69 70 73 72 72 73 72 70 70 71 71 71 71 72 72 72 72 73 73 73 73 71 70 68 67 66 65 64 62 61 60 59 58 58 58 58 58 57 56 54 54 53 52 51 50 48 48 45 41 41 43 46 47 44 39 38 37 38 39 38 38 38 38 39 37 35 34 32 30 25 16 13 16 19 20 20 21 22 24 24 22 22 21 19 18 19 21
61 62 65 68 68 67 71 72 70 70 71 71 71 71 71 72 73 73 74 75 76 75 75 74 72 70 69 68 67 65 64 63 62 61 61 61 61 61 60 59 57 56 55 54 54 52 51 52 50 45 45 47 48 46 40 37 38 39 40 39 37 39 39 40 40 36 33 32 30 30 25 13 9 13 16 20 22 21 22 24 25 24 24 22 20 19 18 18
52 54 57 60 59 60 62 65 67 68 68 69 71 71 71 72 73 73 74 75 77 77 77 76 75 74 72 71 70 68 67 66 65 64 64 64 64 64 63 61 60 59 58 56 56 55 55 56 53 48 49 50 47 44 41 39 40 41 43 42 40 41 42 43 40 33 33 34 30 32 27 12 9 13 16 19 22 22 22 22 24 25 26 24 22 23 22 21
45 46 49 51 51 51 53 55 60 62 62 65 68 68 69 70 72 73 73 74 76 78 79 78 78 77 75 74 72 71 70 69 68 67 67 67 67 67 66 64 62 61 60 59 58 58 57 57 55 52 50 50 48 47 46 45 44 47 48 45 44 45 43 42 38 34 37 37 34 35 27 10 9 13 14 17 21 22 21 21 22 25 26 25 24 25 25 24
40 39 42 44 44 43 44 45 49 53 54 56 60 63 65 67 70 71 71 72 76 78 79 80 81 80 79 77 76 74 73 72 71 70 70 70 70 69 69 67 66 64 63 62 61 60 60 59 59 56 54 53 52 51 52 51 51 52 51 47 46 45 43 42 40 39 43 41 37 36 26 13 12 14 16 17 19 20 20 20 21 23 25 26 26 27 27 27
37 35 35 37 37 37 37 37 38 42 45 47 50 55 59 62 66 68 69 70 74 76 79 81 82 83 82 80 79 77 76 75 74 73 73 73 72 72 71 70 69 67 66 65 64 63 63 62 62 60 57 57 56 56 56 55 54 54 52 50 47 45 45 44 42 44 46 41 38 36 28 18 15 16 18 20 20 20 20 20 21 22 24 27 29 30 29 30
35 32 29 29 31 32 32 32 31 32 36 38 41 47 52 56 60 64 66 68 71 73 76 79 82 83 84 83 82 81 79 78 77 76 76 76 75 74 73 72 71 70 69 68 67 66 65 64 64 63 60 59 59 57 57 56 55 56 54 53 50 48 47 45 46 49 45 40 40 37 31 27 20 18 20 22 21 20 20 21 22 21 23 27 29 30 32 33
33 30 26 23 25 28 29 29 27 26 28 30 33 39 45 50 54 58 60 62 66 69 71 75 80 82 84 85 84 83 82 80 79 79 78 79 78 76 75 75 74 73 72 71 69 69 67 66 66 65 63 62 61 59 58 58 57 57 56 54 52 49 48 47 50 49 44 43 43 35 31 34 27 20 21 22 22 21 21 22 23 21 21 24 27 29 32 34
29 27 25 22 22 25 25 25 25 23 23 24 26 31 37 44 50 53 54 54 57 61 66 70 75 79 82 86 85 84 84 83 81 81 81 81 80 79 77 77 76 75 75 74 72 71 70 69 68 68 66 64 63 62 60 58 58 58 58 56 53 51 49 49 50 47 45 46 42 31 32 38 33 24 22 21 22 22 22 23 24 21 19 20 24 28 32 35
26 23 22 21 23 23 22 21 21 21 20 19 20 23 27 35 42 47 50 51 50 52 57 63 69 74 78 82 84 84 84 84 83 83 83 82 82 81 80 79 79 78 77 76 75 74 73 72 71 70 69 67 66 65 62 60 60 60 58 57 56 54 51 50 50 48 47 47 41 34 37 39 34 28 23 22 24 25 25 26 25 22 20 21 25 29 32 35
23 21 19 20 23 22 20 18 18 18 18 17 17 18 18 23 31 37 43 47 48 49 52 54 59 66 72 77 80 81 82 84 84 84 84 84 84 83 82 82 81 81 80 79 78 77 75 74 73 73 72 70 68 68 66 63 62 61 59 58 57 56 54 53 53 51 50 49 44 39 41 40 34 29 26 25 27 29 29 28 27 25 24 24 26 28 30 33
21 19 17 18 20 20 18 17 16 16 16 16 17 15 14 17 21 25 31 38 42 48 53 53 53 57 63 68 73 76 80 83 84 84 85 86 86 86 85 84 83 83 82 81 80 80 78 77 76 75 75 72 70 70 69 66 65 63 61 59 58 58 57 55 55 55 53 50 45 43 45 40 31 27 27 26 28 30 31 30 29 29 28 27 27 29 30 31
19 18 17 17 19 18 16 15 15 14 14 15 14 13 13 15 15 16 21 27 31 39 49 54 56 57 56 57 62 70 77 81 82 82 84 86 87 88 88 86 85 84 83 83 82 82 82 80 78 78 78 75 72 72 71 69 67 65 62 60 59 60 58 57 57 56 54 52 48 47 45 35 27 28 30 29 30 31 32 32 31 32 32 30 29 29 30 31
Wind_Direction
294 296 297 297 298 299 300 300 301 302 300 298 297 296 297 302 306 308 303 293 283 278 278 278 277 269 256 248 243 239 235 230 229 224 224 225 218 214 195 191 196 193 196 200 202 199 200 205 208 208 211 213 211 207 203 213 214 188 184 164 134 122 122 135 138 120 112 110 101 84 65 47 32 33 43 46 44 43 48 44 41 345 183 152 173 172 158 197
289 291 292 294 296 298 299 300 300 300 300 299 298 295 293 293 295 300 302 297 288 280 275 275 276 274 267 257 246 239 233 229 228 229 231 223 205 208 203 198 191 191 196 197 203 202 200 204 206 208 211 213 209 202 202 206 199 198 208 175 155 162 132 142 144 120 112 114 110 96 75 54 37 31 37 44 44 46 47 30 10 351 328 246 198 196 178 182
286 286 287 290 292 295 296 297 297 297 298 298 297 297 294 290 288 289 293 294 291 284 277 274 275 273 269 266 255 243 234 229 227 231 234 214 201 211 209 202 193 193 193 195 203 203 203 203 200 204 209 212 209 201 198 196 194 207 211 167 160 185 154 157 158 139 125 119 116 104 84 66 53 50 51 53 55 58 55 34 8 357 345 322 239 225 215 196
282 282 283 285 287 290 291 291 292 292 292 293 294 294 294 292 286 282 282 285 286 284 280 276 274 272 269 266 263 253 239 231 227 230 232 217 210 219 215 207 201 198 196 198 204 205 206 202 196 202 208 209 208 202 195 192 195 202 195 167 168 189 183 172 164 157 140 119 117 110 93 77 62 54 53 56 63 64 61 46 17 357 347 331 290 263 251 217
279 279 279 280 283 285 286 287 288 288 288 288 287 288 290 290 288 282 275 275 277 278 277 274 273 271 270 268 264 260 248 236 229 229 231 221 216 225 222 214 211 206 204 206 208 210 209 201 196 199 204 207 206 200 198 198 197 195 186 175 182 197 204 196 177 169 149 124 123 117 101 87 74 61 51 50 56 55 48 39 24 360 344 333 307 276 266 236
278 277 277 277 279 280 281 283 284 285 285 285 284 283 282 283 286 283 275 270 268 271 271 268 267 268 271 271 267 263 256 246 233 229 230 225 220 225 227 222 219 214 212 212 212 215 210 199 194 196 201 203 202 199 202 203 199 194 185 186 197 206 218 221 201 179 161 138 130 123 108 97 86 74 59 47 46 45 37 22 14 1 344 337 321 285 277 263
278 277 276 276 276 276 277 277 279 280 281 281 281 281 280 279 278 277 275 269 265 265 265 262 258 261 267 270 271 268 263 253 238 230 230 228 224 226 228 226 225 223 221 218 215 217 207 193 189 194 200 200 200 206 209 208 204 199 191 196 209 213 220 229 233 222 196 162 140 130 116 106 97 86 74 56 49 47 40 25 6 355 345 342 332 294 283 277
279 277 276 275 275 274 274 275 275 276 276 276 276 277 278 278 275 270 267 265 264 263 262 260 254 254 260 265 270 269 267 257 244 236 232 230 226 228 230 230 229 226 226 223 215 213 203 190 190 196 197 195 200 210 214 211 209 206 196 198 210 216 220 231 250 260 248 221 159 142 127 117 110 100 91 75 60 50 42 33 14 355 346 346 338 298 285 281
279 278 276 275 274 273 273 273 274 274 274 273 272 273 276 278 275 268 262 259 259 260 261 259 254 252 253 258 263 264 270 265 252 241 236 232 227 227 230 232 232 228 227 224 218 212 201 191 194 199 196 196 203 210 214 211 209 210 206 204 209 217 225 235 249 260 267 285 269 162 141 133 126 115 105 91 70 53 40 35 26 6 352 348 338 300 286 284
280 278 276 275 274 273 272 272 272 273 272 271 270 271 273 276 273 269 263 259 257 256 258 258 256 253 252 254 255 258 268 266 259 246 238 236 228 226 228 231 232 231 228 227 224 216 205 197 199 202 198 199 204 210 214 210 209 215 220 219 215 219 228 238 250 261 272 286 284 209 156 148 140 128 118 104 81 58 36 30 32 16 358 348 335 304 288 281
282 280 278 277 275 274 273 272 271 271 271 270 269 269 270 271 270 269 265 262 259 255 254 256 257 256 255 253 251 255 265 261 261 253 239 236 231 225 225 230 232 233 231 230 228 220 211 204 206 207 202 202 205 211 213 209 212 219 227 228 221 221 228 240 253 266 277 283 281 248 176 159 147 138 128 108 86 63 34 18 23 21 7 353 338 310 294 279
283 282 281 279 277 276 274 273 272 271 270 268 267 268 268 266 265 267 266 263 260 258 257 257 255 255 256 253 249 251 256 257 259 253 242 235 237 228 220 224 230 233 232 231 228 222 216 211 214 213 207 208 209 212 214 209 214 222 230 232 226 228 230 241 253 264 276 277 276 256 183 161 150 145 128 104 88 68 38 10 4 16 20 3 350 328 305 283
283 282 281 280 278 276 275 274 273 271 269 268 267 267 266 264 263 264 264 263 260 260 262 261 256 252 253 253 249 243 250 255 254 250 247 241 242 236 220 217 222 229 231 232 230 225 221 216 218 216 211 214 213 216 218 214 216 222 231 233 230 234 232 235 246 257 269 269 268 249 177 159 152 146 124 102 92 74 47 12 355 17 32 12 355 341 324 303
281 281 280 278 277 275 274 273 272 271 269 268 268 267 266 264 263 262 263 263 261 258 258 259 258 254 254 254 249 239 246 250 249 249 254 252 243 238 230 219 218 223 226 229 231 229 226 222 221 218 217 218 217 220 222 220 219 222 230 233 231 234 229 231 241 255 265 263 257 231 169 160 151 142 122 101 93 81 56 18 357 14 22 11 357 345 334 320
279 279 278 277 276 274 272 271 270 269 268 268 268 268 266 264 263 263 263 263 261 258 255 254 255 255 257 257 248 237 241 245 247 253 260 255 245 238 234 228 223 223 225 226 227 229 229 228 227 225 223 219 220 224 224 224 223 224 231 232 229 228 220 227 240 254 259 253 244 209 156 156 145 134 119 103 97 88 66 37 13 8 3 2 359 348 340 327
278 278 278 277 275 273 271 270 269 268 267 267 268 268 266 265 264 264 264 264 262 259 255 253 253 253 256 259 251 238 240 247 249 254 258 253 245 243 240 239 237 232 232 230 229 229 228 230 231 229 227 222 224 228 227 227 225 225 231 231 226 220 214 223 237 248 248 244 235 189 145 144 132 122 116 106 98 87 69 46 24 8 354 352 355 346 345 330
278 278 278 278 276 274 271 269 268 268 266 266 266 266 265 264 264 263 263 264 264 261 257 254 253 251 254 257 254 245 243 248 250 247 249 249 244 243 243 241 242 240 238 237 236 236 234 232 232 231 231 230 230 230 231 233 229 227 231 228 223 215 213 222 234 239 236 237 226 184 151 138 123 117 115 107 95 83 68 45 25 7 349 345 348 335 343 335
275 277 278 278 277 275 272 270 268 266 266 265 264 264 264 263 262 262 261 261 262 261 259 256 255 254 255 258 256 250 246 246 247 242 244 249 246 243 242 238 237 239 241 243 244 243 241 238 235 234 234 234 236 237 243 249 238 231 231 226 221 214 211 218 229 229 225 229 219 187 159 141 128 121 117 109 95 82 66 47 30 7 346 346 352 326 332 338
273 274 275 276 276 275 273 271 268 266 265 264 263 262 263 262 261 261 260 259 258 258 258 257 257 255 254 256 256 251 248 246 248 245 244 250 250 245 245 244 241 241 243 247 250 250 248 245 240 238 237 238 241 245 251 253 239 233 231 224 217 213 208 210 224 226 225 226 213 189 170 161 148 133 127 120 108 89 68 50 37 12 345 345 358 330 317 334
272 272 273 273 273 273 273 271 269 266 264 263 262 260 260 261 261 260 259 258 255 255 256 254 253 254 255 255 255 255 250 244 245 245 244 249 252 247 245 247 247 247 249 250 251 250 248 247 246 244 241 243 246 247 247 243 236 232 230 224 214 212 207 205 219 226 230 228 210 197 187 174 161 147 146 141 128 108 80 55 36 15 346 336 347 330 309 330
272 271 272 272 271 271 271 270 269 267 265 263 261 260 258 259 260 259 259 258 257 254 252 252 250 249 256 256 253 253 251 244 245 247 245 247 250 249 245 246 246 248 252 249 244 244 244 250 260 251 241 240 243 246 245 240 234 231 231 225 216 213 208 205 216 224 233 234 214 206 195 177 172 168 168 155 136 122 105 73 24 9 350 332 325 314 295 321
271 270 270 271 270 270 269 268 268 267 265 263 262 261 259 258 258 258 257 256 258 256 250 249 250 243 248 256 254 250 252 251 249 248 245 244 249 252 248 244 242 242 244 244 244 245 247 257 269 253 241 237 238 240 241 238 233 229 229 227 219 213 207 208 215 219 228 234 225 215 203 187 190 192 179 163 148 149 152 152 234 327 5 329 317 307 282 296
269 269 269 269 269 269 268 267 266 265 265 264 262 261 260 259 258 257 256 253 253 257 254 248 246 241 242 253 255 251 250 251 249 247 244 244 246 249 249 245 242 239 240 244 249 251 249 250 249 243 234 232 233 234 236 234 231 227 226 228 220 209 209 209 215 219 223 230 229 223 213 198 200 199 179 170 173 178 170 164 170 150 108 318 314 312 273 252
269 268 267 267 267 267 267 266 265 264 264 263 262 262 261 260 259 257 256 254 248 252 258 254 245 238 238 248 254 253 249 245 249 251 247 245 244 246 248 244 240 239 240 244 249 249 246 240 238 236 229 225 225 227 229 230 230 227 226 228 217 208 212 210 213 220 223 227 229 228 225 212 208 205 185 182 190 184 170 157 150 140 138 269 307 311 261 220
269 267 266 266 266 266 266 265 264 263 263 263 262 261 261 261 260 259 257 256 249 243 252 257 252 242 237 242 251 256 251 243 247 251 245 242 243 244 244 242 241 241 242 244 246 246 244 241 238 238 236 230 225 224 225 226 227 226 226 228 217 208 213 211 212 220 224 227 227 231 232 219 212 211 197 196 194 177 168 159 150 147 155 177 291 307 271 218
269 267 266 265 264 264 264 264 263 262 261 261 261 261 260 260 260 259 258 256 253 244 243 251 255 251 243 240 244 251 251 243 242 246 242 237 240 241 240 241 243 242 240 241 241 240 241 241 238 239 241 238 235 232 230 230 228 225 222 225 220 211 211 211 212 219 225 227 225 230 235 227 216 212 205 205 195 179 176 167 157 155 152 146 136 297 279 238
271 268 267 265 263 262 262 262 262 262 261 260 260 259 259 259 258 258 259 257 254 250 243 243 249 251 249 245 242 245 248 243 240 245 243 236 238 241 240 241 243 242 240 241 241 240 241 243 241 242 244 244 243 241 238 237 233 224 215 219 222 215 211 211 212 219 224 226 225 227 235 236 222 210 211 214 202 189 182 171 161 156 147 140 133 122 278 253
272 269 268 266 264 262 261 260 260 260 260 259 258 258 258 258 257 257 257 257 256 254 248 242 244 248 248 247 245 244 245 241 239 243 242 236 235 238 239 240 241 241 240 240 239 232 235 239 239 240 241 241 241 240 239 238 233 215 209 217 222 218 213 211 213 217 222 227 227 226 233 242 232 208 215 220 208 195 182 171 164 154 145 138 135 130 204 252
273 271 269 267 265 263 261 259 258 258 259 259 257 256 256 256 256 256 256 256 256 255 252 246 244 245 246 246 246 245 245 241 239 241 241 237 236 237 238 237 237 237 236 237 233 224 226 231 232 233 235 235 233 230 230 228 216 202 208 213 217 218 215 212 215 217 220 227 231 227 230 244 243 208 214 220 209 197 178 169 164 155 149 144 145 152 170 227
275 273 270 268 267 265 264 261 259 257 257 257 257 256 255 254 254 254 254 254 255 255 254 250 245 244 246 246 245 244 245 243 241 241 241 239 237 236 235 234 235 236 236 236 231 224 225 228 232 234 235 236 231 228 228 220 204 200 207 209 213 217 214 213 217 217 221 231 237 228 226 243 249 211 211 218 201 189 179 173 170 162 155 149 148 152 155 192
275 273 271 269 267 266 265 264 262 259 257 255 255 255 254 253 252 251 251 253 254 254 253 251 247 244 244 246 245 243 242 243 243 242 241 240 238 237 236 234 236 237 238 238 234 229 228 229 235 238 237 237 233 231 231 224 211 205 206 208 213 217 214 214 216 218 226 239 244 230 226 238 241 187 201 219 198 190 187 181 177 167 158 153 152 153 152 160
274 272 271 270 268 266 264 264 263 261 259 257 254 253 253 252 251 250 250 250 251 251 251 250 248 246 244 246 247 243 240 240 242 242 242 240 240 241 240 240 241 242 243 243 239 236 235 233 237 238 235 236 234 231 231 230 226 216 211 211 215 218 218 218 218 223 235 252 251 235 230 237 238 190 205 219 194 190 189 188 185 172 164 161 160 159 159 164
273 271 269 268 267 266 265 263 261 260 260 259 256 253 252 251 250 249 249 248 248 248 249 250 249 246 245 245 246 244 240 237 238 240 241 240 238 238 237 235 235 237 238 236 231 233 234 232 233 234 233 234 235 234 234 237 238 235 227 223 223 225 226 227 227 232 246 260 254 238 231 238 244 230 223 221 201 193 188 192 194 184 177 169 163 165 166 169
275 271 268 266 265 264 264 262 260 259 258 258 257 254 252 250 249 249 248 247 246 246 247 248 248 246 245 243 244 244 242 237 235 237 239 239 238 236 235 233 231 232 230 227 226 227 228 227 229 232 233 235 238 238 241 241 240 240 238 234 233 235 237 238 238 241 250 257 252 241 233 240 248 244 236 232 222 212 198 198 202 198 192 179 171 173 176 179
277 273 269 265 263 262 260 260 258 257 255 255 254 254 253 251 250 249 248 246 245 244 244 245 246 246 244 243 242 242 242 239 237 237 238 239 238 236 236 237 235 234 232 230 229 229 231 229 226 229 228 228 231 232 235 237 235 234 232 231 236 241 242 241 239 241 245 249 250 246 242 247 256 253 247 240 231 225 215 209 209 206 200 192 187 185 185 188
278 275 271 267 264 261 259 257 256 255 254 252 252 253 253 252 251 250 248 247 245 243 242 242 244 244 244 242 240 240 240 240 238 237 236 238 238 233 231 232 234 234 232 231 230 231 232 228 224 231 230 225 225 226 228 232 232 233 232 231 238 243 240 239 239 239 242 245 248 250 252 258 261 256 250 244 237 232 226 219 211 206 202 201 199 194 193 192
278 276 272 269 266 263 259 256 254 253 252 251 250 251 251 249 249 249 248 246 245 243 241 241 241 242 242 242 239 237 237 238 237 236 235 236 236 234 230 228 228 229 228 227 227 227 227 221 218 227 229 224 224 225 227 228 228 230 231 230 235 236 234 235 236 234 237 243 247 249 252 256 257 252 249 246 241 236 233 229 218 208 206 207 206 202 199 196
279 276 273 269 267 265 261 258 255 253 251 249 248 248 248 247 246 247 247 246 245 243 241 240 240 239 240 241 239 237 235 235 235 235 234 234 235 235 233 230 229 229 228 227 226 225 225 221 217 220 221 220 223 225 226 227 227 229 227 223 228 232 232 235 237 234 235 241 249 250 250 252 252 252 251 250 247 242 239 238 230 221 215 212 212 211 207 204
280 277 273 269 267 265 263 259 256 254 252 250 247 245 244 244 243 243 244 245 244 243 241 239 239 238 238 238 238 237 234 233 233 233 233 233 234 234 234 232 232 232 231 230 228 226 226 224 220 217 217 219 223 225 225 225 227 228 226 224 225 229 233 236 240 241 240 244 252 256 255 255 255 258 259 257 254 248 244 242 239 234 227 222 219 219 217 215
283 280 276 271 267 266 263 260 258 255 252 250 247 244 242 242 241 241 241 242 243 242 241 239 238 237 237 237 237 236 234 232 231 232 232 233 233 234 233 233 232 233 233 233 232 230 230 230 225 218 216 220 225 228 226 225 227 229 228 229 229 231 233 234 237 240 240 244 250 254 256 256 252 254 259 259 256 251 247 246 245 242 237 231 226 225 225 220
287 284 279 274 270 267 263 260 258 256 253 250 247 245 243 240 239 239 239 240 240 241 240 239 238 236 235 235 235 235 234 233 231 230 231 232 233 233 233 233 232 233 233 234 234 233 233 233 229 222 220 223 226 229 229 227 228 230 231 232 233 236 238 238 239 241 244 248 251 254 260 261 240 238 244 250 253 252 248 247 247 246 243 235 228 229 226 210
295 290 284 278 275 271 266 262 259 256 253 250 247 245 242 240 238 237 236 237 238 238 239 239 237 236 234 234 234 234 233 232 231 230 230 231 232 233 233 233 232 232 233 233 234 233 233 234 232 226 225 227 226 227 228 227 227 230 230 229 229 233 236 239 242 245 251 255 254 256 261 254 225 229 228 235 243 245 243 241 241 243 243 238 232 232 226 208
301 298 291 286 282 277 271 266 261 258 255 251 247 244 242 239 237 235 234 234 234 235 236 237 237 236 234 233 232 232 232 232 230 229 229 230 231 232 233 233 232 232 232 232 232 233 233 234 233 229 228 230 228 226 226 225 225 228 228 226 226 228 232 237 241 243 247 249 249 253 253 224 202 224 221 224 235 239 239 237 233 234 238 237 233 235 232 216
304 302 297 293 291 286 280 272 265 262 258 253 248 244 241 239 237 234 233 232 232 232 233 234 234 234 234 233 231 231 231 230 230 229 229 229 230 231 232 232 232 231 230 230 231 232 232 233 233 231 228 228 226 225 226 225 225 228 228 227 227 228 229 233 235 237 240 240 241 245 240 211 201 215 215 218 226 232 235 236 234 230 231 229 225 230 234 224
306 303 301 298 297 295 290 283 273 265 261 256 250 245 240 238 236 233 232 231 230 230 230 231 232 232 232 232 230 229 229 229 229 228 228 228 229 230 230 231 232 231 230 230 230 231 231 232 233 232 229 228 227 227 228 227 228 231 231 229 229 228 228 231 234 237 238 237 237 240 239 232 215 206 212 217 219 223 226 229 232 229 226 225 221 222 227 225
308 305 303 300 300 301 299 295 287 273 264 257 250 245 239 236 235 233 231 230 229 229 229 229 230 230 231 230 230 228 227 227 227 227 228 228 228 228 229 230 230 230 230 230 230 231 231 232 233 233 231 230 230 229 230 229 231 233 233 231 229 228 228 230 234 238 240 240 240 240 245 246 227 201 208 215 215 218 219 222 229 227 224 226 224 220 219 221
311 308 305 302 302 304 304 304 299 286 271 259 250 245 239 235 233 232 231 230 228 228 228 228 228 229 229 229 229 228 226 225 225 225 226 227 227 227 227 228 229 229 230 230 230 231 232 231 232 233 232 231 230 230 229 230 231 232 233 233 232 230 230 231 235 239 240 241 242 241 245 249 240 213 207 212 213 214 216 222 227 227 224 227 229 224 217 218
312 310 308 306 306 306 308 310 309 300 284 267 255 247 240 235 232 230 229 228 227 227 227 228 228 228 228 228 228 227 226 225 223 223 224 225 226 226 225 225 226 227 229 230 230 231 231 232 232 233 233 231 231 231 230 230 231 232 233 235 234 233 233 234 238 241 241 243 245 244 244 247 245 230 214 213 214 213 216 223 227 227 226 225 229 227 220 219
314 310 309 312 311 310 311 312 312 309 300 285 271 258 245 239 236 232 229 226 224 224 225 226 227 228 228 228 228 227 226 225 223 222 222 223 224 224 223 223 224 226 227 229 230 230 231 231 232 233 233 232 232 231 230 230 232 233 234 236 236 236 236 237 238 239 241 244 245 241 241 244 244 237 224 215 215 216 218 224 228 230 228 222 224 226 222 222
314 311 311 314 314 313 314 313 311 310 307 302 292 279 263 249 242 238 235 229 223 221 222 222 224 227 227 228 228 228 227 225 223 222 221 221 221 222 222 221 222 224 225 227 229 230 230 231 231 233 233 233 233 233 232 230 232 234 235 236 238 239 239 239 239 237 238 240 240 238 239 239 239 239 232 220 217 218 220 224 228 231 230 224 222 225 225 227
315 313 314 315 315 315 315 313 312 311 309 307 303 299 287 268 254 247 244 237 228 223 222 220 220 222 225 227 228 228 227 226 224 223 221 220 219 219 220 220 221 222 223 225 228 229 230 230 230 232 233 232 232 233 233 232 232 234 234 236 238 239 239 239 239 239 238 238 237 237 237 237 237 242 241 231 224 220 220 224 228 230 231 228 224 225 226 228
317 315 315 317 317 316 314 313 314 314 310 307 308 307 298 288 277 264 254 249 239 231 228 226 224 223 224 225 228 229 228 226 225 224 222 220 219 218 218 219 219 220 221 223 225 228 229 230 229 230 232 232 230 232 234 233 232 233 234 234 236 238 238 238 239 241 241 240 239 238 238 237 236 239 242 239 232 225 220 222 227 231 233 230 225 224 227 229